Find Starlink 2469

NORAD ID: 48128 Int'l Des: 2021-027 Owner: SPXS Country: US Constellation: starlink operational
LEOCIRCULARSTARLINK_TYPE

Live Position

Loading 3D Globe...

About Starlink 2469

Description loading...

Upcoming Passes

Passes for default location (London). Set your location on the main map for personalized predictions.

Altitude History

Loading altitude history...

Two-Line Element Set

1 48128U 21027AN 26112.11132772 .00046284 00000-0 20502-2 0 9996
2 48128 53.1083 262.1619 0001679 302.7818 57.3016 15.21206830280004
Epoch: Apr 22, 2026 • Age: 15 hours

Current Status

Altitude 519.5 km
Velocity 7.60 km/s
Sub-Earth Point -52.67°S, 36.39°E
Launch Date Apr 7, 2021
Age 5 years
Type internet

Technical Details

Classification Payload
Mass 260.00 kg
Dry Mass 248.00 kg
Total Mass 260.00 kg
Length 0.20 m
Diameter 2.80 m
Span 9.00 m
Shape Box + pan
Manufacturer SPXS
Bus Type Starlink
Phase Status In Orbit
Owner/State SPXS/US

Most Searched